TimeMDT,TemperatureF,Dew PointF,Humidity,Sea Level PressureIn,VisibilityMPH,Wind Direction,Wind SpeedMPH,Gust SpeedMPH,PrecipitationIn,Events,Conditions,WindDirDegrees,DateUTC
12:53 AM,37.9,28.0,68,30.13,10.0,South,8.1,-,0.00,,Overcast,180,2012-10-27 06:53:00
1:53 AM,39.0,26.1,60,30.11,10.0,South,8.1,-,N/A,,Mostly Cloudy,180,2012-10-27 07:53:00
2:53 AM,37.9,26.1,62,30.09,10.0,South,10.4,-,N/A,,Clear,190,2012-10-27 08:53:00
3:53 AM,41.0,27.0,57,30.09,10.0,South,11.5,-,N/A,,Clear,190,2012-10-27 09:53:00
4:53 AM,37.0,27.0,67,30.10,10.0,South,10.4,-,N/A,,Clear,190,2012-10-27 10:53:00
5:53 AM,36.0,27.0,70,30.10,10.0,South,12.7,-,N/A,,Clear,190,2012-10-27 11:53:00
6:53 AM,37.9,27.0,65,30.11,10.0,South,11.5,-,N/A,,Mostly Cloudy,190,2012-10-27 12:53:00
7:53 AM,36.0,27.0,70,30.12,10.0,South,11.5,-,N/A,,Partly Cloudy,190,2012-10-27 13:53:00
8:53 AM,39.9,28.0,63,30.13,10.0,SSW,10.4,-,N/A,,Partly Cloudy,200,2012-10-27 14:53:00
9:53 AM,44.1,28.9,55,30.13,10.0,SSW,9.2,-,N/A,,Overcast,200,2012-10-27 15:53:00
10:53 AM,50.0,28.9,44,30.13,2.5,WSW,12.7,-,N/A,,Haze,250,2012-10-27 16:53:00
11:03 AM,51.8,28.4,41,30.17,10.0,West,12.7,-,N/A,,Overcast,260,2012-10-27 17:03:00
11:53 AM,52.0,28.0,40,30.12,10.0,West,11.5,-,N/A,,Mostly Cloudy,270,2012-10-27 17:53:00
12:53 PM,55.0,26.1,33,30.10,10.0,West,6.9,-,N/A,,Scattered Clouds,270,2012-10-27 18:53:00
1:00 PM,55.4,26.6,33,30.15,0.8,West,9.2,-,N/A,,Mostly Cloudy,270,2012-10-27 19:00:00
1:05 PM,55.4,26.6,33,30.15,10.0,West,6.9,16.1,N/A,,Mostly Cloudy,280,2012-10-27 19:05:00
1:53 PM,57.0,24.1,28,30.07,10.0,West,9.2,-,N/A,,Mostly Cloudy,270,2012-10-27 19:53:00
1:57 PM,57.2,24.8,29,30.13,0.8,WSW,6.9,-,N/A,,Mostly Cloudy,250,2012-10-27 19:57:00
2:08 PM,55.4,24.8,31,30.13,10.0,West,8.1,-,N/A,,Scattered Clouds,280,2012-10-27 20:08:00
2:53 PM,55.9,28.0,34,30.06,10.0,Variable,6.9,-,N/A,,Mostly Cloudy,0,2012-10-27 20:53:00
3:53 PM,55.9,27.0,33,30.05,10.0,NW,10.4,-,N/A,,Overcast,310,2012-10-27 21:53:00
4:53 PM,53.1,25.0,34,30.08,10.0,WNW,9.2,-,N/A,,Overcast,300,2012-10-27 22:53:00
5:53 PM,52.0,25.0,35,30.08,10.0,Calm,Calm,-,N/A,,Overcast,0,2012-10-27 23:53:00
6:53 PM,50.0,28.0,43,30.09,10.0,SSW,6.9,-,N/A,,Overcast,200,2012-10-28 00:53:00
7:53 PM,48.9,28.9,46,30.09,10.0,South,3.5,-,N/A,,Overcast,180,2012-10-28 01:53:00
8:53 PM,48.9,30.9,50,30.09,10.0,WNW,3.5,-,N/A,,Overcast,300,2012-10-28 02:53:00
10:53 PM,53.1,34.0,48,30.04,10.0,SSW,8.1,-,N/A,,Overcast,200,2012-10-28 04:53:00
11:53 PM,53.1,35.1,50,30.03,10.0,SSW,8.1,-,N/A,,Overcast,200,2012-10-28 05:53:00